• In Germany
  • List of Countries
  • For 7 days
  • Water Temperature
  • Satellite Maps
  • Weather Map
  • Weather Widgets
  • user-avatar
    Login

    Hourly Weather Zaranj

    Today, 20 November, Monday

    Time Temperature Precipitation Wind Pressure Humidity
    00:00 +15°C° 0 mm 2 mps 723 mmHg 25%
    01:00 +14°C° 0 mm 2 mps 723 mmHg 26%
    02:00 +14°C° 0 mm 2 mps 723 mmHg 27%
    03:00 +13°C° 0 mm 1 mps 723 mmHg 28%
    04:00 +12°C° 0 mm 1 mps 723 mmHg 29%
    05:00 +12°C° 0 mm 1 mps 723 mmHg 29%
    06:00 +12°C° 0 mm 1 mps 723 mmHg 29%
    07:00 +12°C° 0 mm 1 mps 723 mmHg 29%
    08:00 +14°C° 0 mm 1 mps 723 mmHg 26%
    09:00 +15°C° 0 mm 0 mps 724 mmHg 22%
    10:00 +17°C° 0 mm 0 mps 724 mmHg 19%
    11:00 +18°C° 0 mm 0 mps 724 mmHg 17%
    12:00 +21°C° 0 mm 1 mps 723 mmHg 15%
    13:00 +22°C° 0 mm 1 mps 723 mmHg 13%
    14:00 +22°C° 0 mm 1 mps 722 mmHg 13%
    15:00 +22°C° 0 mm 1 mps 722 mmHg 12%
    16:00 +22°C° 0 mm 1 mps 722 mmHg 12%
    17:00 +21°C° 0 mm 1 mps 722 mmHg 13%
    18:00 +19°C° 0 mm 1 mps 722 mmHg 15%
    19:00 +18°C° 0 mm 1 mps 722 mmHg 16%
    20:00 +16°C° 0 mm 1 mps 722 mmHg 17%
    21:00 +16°C° 0 mm 1 mps 722 mmHg 17%
    22:00 +15°C° 0 mm 1 mps 722 mmHg 18%
    23:00 +14°C° 0 mm 1 mps 722 mmHg 19%

    Tomorrow, 21 November, Tuesday

    Time Temperature Precipitation Wind Pressure Humidity
    00:00 +13°C° 0 mm 0 mps 722 mmHg 20%
    01:00 +12°C° 0 mm 0 mps 721 mmHg 20%
    02:00 +12°C° 0 mm 0 mps 721 mmHg 21%
    03:00 +12°C° 0 mm 0 mps 721 mmHg 22%
    04:00 +11°C° 0 mm 0 mps 720 mmHg 22%
    05:00 +11°C° 0 mm 0 mps 721 mmHg 22%
    06:00 +13°C° 0 mm 1 mps 721 mmHg 22%
    07:00 +13°C° 0 mm 1 mps 721 mmHg 22%
    08:00 +15°C° 0 mm 1 mps 722 mmHg 19%
    09:00 +18°C° 0 mm 1 mps 722 mmHg 16%
    10:00 +20°C° 0 mm 1 mps 723 mmHg 14%
    11:00 +21°C° 0 mm 1 mps 722 mmHg 13%
    12:00 +22°C° 0 mm 1 mps 721 mmHg 12%
    13:00 +23°C° 0 mm 1 mps 721 mmHg 11%
    14:00 +23°C° 0 mm 1 mps 721 mmHg 10%
    15:00 +23°C° 0 mm 1 mps 720 mmHg 10%
    16:00 +23°C° 0 mm 2 mps 720 mmHg 10%
    17:00 +21°C° 0 mm 2 mps 720 mmHg 11%
    18:00 +20°C° 0 mm 2 mps 720 mmHg 12%
    19:00 +18°C° 0 mm 2 mps 720 mmHg 13%
    20:00 +18°C° 0 mm 2 mps 720 mmHg 13%
    21:00 +17°C° 0 mm 2 mps 720 mmHg 14%
    22:00 +17°C° 0 mm 2 mps 720 mmHg 14%
    23:00 +16°C° 0 mm 2 mps 720 mmHg 15%

    Day after tomorrow, 22 November, Wednesday

    Time Temperature Precipitation Wind Pressure Humidity
    00:00 +16°C° 0 mm 2 mps 719 mmHg 15%
    01:00 +15°C° 0 mm 2 mps 719 mmHg 16%
    02:00 +15°C° 0 mm 2 mps 719 mmHg 16%
    03:00 +15°C° 0 mm 2 mps 718 mmHg 17%
    04:00 +14°C° 0 mm 2 mps 718 mmHg 17%
    05:00 +14°C° 0 mm 2 mps 718 mmHg 17%
    06:00 +15°C° 0 mm 2 mps 719 mmHg 17%
    07:00 +15°C° 0 mm 2 mps 719 mmHg 18%
    08:00 +16°C° 0 mm 2 mps 719 mmHg 16%
    09:00 +18°C° 0 mm 2 mps 720 mmHg 14%
    10:00 +20°C° 0 mm 2 mps 720 mmHg 12%
    11:00 +21°C° 0 mm 2 mps 719 mmHg 11%
    12:00 +23°C° 0 mm 2 mps 719 mmHg 10%
    13:00 +24°C° 0 mm 3 mps 718 mmHg 9%
    14:00 +25°C° 0 mm 2 mps 718 mmHg 9%
    15:00 +25°C° 0 mm 2 mps 718 mmHg 9%
    16:00 +25°C° 0 mm 2 mps 717 mmHg 9%
    17:00 +24°C° 0 mm 2 mps 717 mmHg 10%
    18:00 +21°C° 0 mm 2 mps 718 mmHg 11%
    19:00 +20°C° 0 mm 2 mps 718 mmHg 12%
    20:00 +19°C° 0 mm 2 mps 718 mmHg 12%
    21:00 +19°C° 0 mm 2 mps 718 mmHg 12%
    22:00 +19°C° 0 mm 2 mps 718 mmHg 13%
    23:00 +19°C° 0 mm 2 mps 717 mmHg 13%

    23 November, Thursday

    Time Temperature Precipitation Wind Pressure Humidity
    00:00 +19°C° 0 mm 2 mps 717 mmHg 13%
    01:00 +19°C° 0 mm 2 mps 717 mmHg 14%
    02:00 +18°C° 0 mm 2 mps 717 mmHg 14%
    03:00 +18°C° 0 mm 2 mps 716 mmHg 15%
    04:00 +17°C° 0 mm 2 mps 716 mmHg 16%
    05:00 +17°C° 0 mm 2 mps 716 mmHg 16%
    06:00 +17°C° 0 mm 2 mps 717 mmHg 17%
    07:00 +16°C° 0 mm 2 mps 717 mmHg 17%
    08:00 +18°C° 0 mm 2 mps 718 mmHg 16%
    09:00 +20°C° 0 mm 2 mps 718 mmHg 14%
    10:00 +23°C° 0 mm 2 mps 719 mmHg 12%
    11:00 +24°C° 0 mm 2 mps 718 mmHg 13%
    12:00 +24°C° 0 mm 1 mps 717 mmHg 13%
    13:00 +25°C° 0 mm 1 mps 717 mmHg 14%
    14:00 +25°C° 0 mm 1 mps 717 mmHg 15%
    15:00 +25°C° 0 mm 1 mps 717 mmHg 16%
    16:00 +26°C° 0 mm 1 mps 716 mmHg 16%
    17:00 +24°C° 0 mm 1 mps 717 mmHg 18%
    18:00 +23°C° 0 mm 1 mps 717 mmHg 20%
    19:00 +21°C° 0 mm 1 mps 717 mmHg 22%
    20:00 +21°C° 0 mm 1 mps 717 mmHg 23%
    21:00 +20°C° 0 mm 1 mps 717 mmHg 24%
    22:00 +20°C° 0 mm 1 mps 717 mmHg 25%
    23:00 +20°C° 0 mm 1 mps 717 mmHg 25%

    24 November, Friday

    Time Temperature Precipitation Wind Pressure Humidity
    00:00 +19°C° 0 mm 1 mps 717 mmHg 26%
    01:00 +19°C° 0 mm 1 mps 717 mmHg 27%
    02:00 +19°C° 0 mm 1 mps 717 mmHg 27%
    03:00 +17°C° 0 mm 2 mps 717 mmHg 27%
    04:00 +17°C° 0 mm 2 mps 717 mmHg 26%
    05:00 +17°C° 0 mm 2 mps 717 mmHg 27%
    06:00 +17°C° 0 mm 2 mps 717 mmHg 27%
    07:00 +17°C° 0 mm 2 mps 718 mmHg 28%
    08:00 +19°C° 0 mm 2 mps 718 mmHg 25%
    09:00 +22°C° 0 mm 1 mps 718 mmHg 22%
    10:00 +23°C° 0 mm 1 mps 719 mmHg 19%
    11:00 +24°C° 0 mm 1 mps 718 mmHg 19%
    12:00 +25°C° 0 mm 1 mps 718 mmHg 18%
    13:00 +26°C° 0 mm 1 mps 717 mmHg 18%
    14:00 +26°C° 0 mm 1 mps 717 mmHg 18%
    15:00 +26°C° 0 mm 1 mps 717 mmHg 19%
    16:00 +26°C° 0 mm 2 mps 717 mmHg 19%
    17:00 +25°C° 0 mm 2 mps 717 mmHg 21%
    18:00 +24°C° 0 mm 2 mps 717 mmHg 23%
    19:00 +23°C° 0 mm 2 mps 717 mmHg 25%
    20:00 +23°C° 0 mm 2 mps 717 mmHg 26%
    21:00 +21°C° 0 mm 2 mps 717 mmHg 26%
    22:00 +21°C° 0 mm 2 mps 717 mmHg 26%
    23:00 +20°C° 0 mm 2 mps 717 mmHg 27%

    25 November, Saturday

    Time Temperature Precipitation Wind Pressure Humidity
    00:00 +20°C° 0 mm 2 mps 717 mmHg 28%
    01:00 +20°C° 0 mm 2 mps 717 mmHg 28%
    02:00 +19°C° 0 mm 2 mps 717 mmHg 30%
    03:00 +19°C° 0 mm 2 mps 717 mmHg 31%
    04:00 +19°C° 0 mm 1 mps 717 mmHg 32%
    05:00 +19°C° 0 mm 1 mps 717 mmHg 33%
    06:00 +19°C° 0 mm 1 mps 718 mmHg 33%
    07:00 +19°C° 0 mm 1 mps 718 mmHg 34%
    08:00 +21°C° 0 mm 1 mps 719 mmHg 30%
    09:00 +23°C° 0 mm 2 mps 719 mmHg 27%
    10:00 +25°C° 0 mm 2 mps 720 mmHg 23%
    11:00 +25°C° 0 mm 2 mps 719 mmHg 23%
    12:00 +26°C° 0 mm 2 mps 719 mmHg 22%
    13:00 +27°C° 0 mm 2 mps 718 mmHg 21%
    14:00 +27°C° 0 mm 2 mps 718 mmHg 21%
    15:00 +27°C° 0 mm 2 mps 718 mmHg 21%
    16:00 +27°C° 0 mm 2 mps 718 mmHg 21%
    17:00 +26°C° 0 mm 2 mps 719 mmHg 23%
    18:00 +25°C° 0 mm 2 mps 719 mmHg 25%
    19:00 +23°C° 0 mm 2 mps 719 mmHg 27%
    20:00 +22°C° 0 mm 3 mps 720 mmHg 28%
    21:00 +21°C° 0 mm 3 mps 720 mmHg 29%
    22:00 +21°C° 0 mm 4 mps 720 mmHg 30%
    23:00 +20°C° 0 mm 4 mps 720 mmHg 33%
    Show more